Flood From: 22-02-2018 06:00 Until: 23-02-2018 06:00 warning for: Flood Level: Yellow info button

Although rather usual in this region, locally or potentially dangerous phenomena are expected. (such as local winds, summer thunderstorms, rising streams or high waves) Be aware and pay attention to the latest weather updates, especially if you carry out activities exposed to weather or close to a stream or shoreline. 


Meteo18 Weather Cam more information Meteo18 Weather Cam


Thunder radar more information blitzortung!


Rain radar more information rain snow radar


Visit our other weather sites:

Template documentation
and downloads

And another site



Weather Underground History page Text

Daily Summary for February 22, 2018 Units:  Metric    English   Both
« Previous Day
Next Day »
Daily Weekly Monthly Yearly Custom
  Current: High: Low: Average:
Temperature: -19 °C -17.8 °C -19.1 °C -18.4 °C
Dew Point: -19.9 °C -17.8 °C -20 °C -19.3 °C
Humidity: 88 % Humidity % 86 % 87 %
Wind Speed: 20.9 km/h 0 km/h 2.3 km/h 17.4 km/h
Wind Gust: 36.2 km/h 0 km/h - -
Wind:NNW - - SSE
Pressure: 34361.1 hPa 0 hPa 34361.1 hPa -
Precipitation: 0 mm      
Historical Graphs
 
 
Tabular Data for February 22, 2018
Time Temperature Dew Point Pressure Wind Wind Speed Wind Gust Humidity Rainfall Rate (Hourly)
-17.8 °C -17.8 °C 0 hPa Calm     Humidity % 0 mm
00:00 -17.7 °C -18.7 °C 34428.8 hPa NNW 10.3 km/h 31.1 km/h 88 % 0 mm
00:06 -17.7 °C -18.7 °C 34428.8 hPa North 38.8 km/h 38.8 km/h 88 % 0 mm
00:12 -17.7 °C -18.7 °C 34428.8 hPa NE 20.9 km/h 28.5 km/h 88 % 0 mm
00:18 -17.7 °C -18.7 °C 34428.8 hPa NE 17.9 km/h 41.4 km/h 88 % 0 mm
00:24 -17.7 °C -18.7 °C 34428.8 hPa NW 2.3 km/h 36.2 km/h 87 % 0 mm
00:30 -17.7 °C -18.7 °C 34428.8 hPa NNE 26.2 km/h 44.1 km/h 88 % 0 mm
00:36 -17.7 °C -18.8 °C 34428.8 hPa NE 15.6 km/h 33.6 km/h 87 % 0 mm
00:42 -17.8 °C -18.8 °C 34428.8 hPa NNE 23 km/h 31.1 km/h 87 % 0 mm
00:48 -17.8 °C -18.9 °C 34428.8 hPa NNE 17.9 km/h 31.1 km/h 87 % 0 mm
00:54 -17.8 °C -18.9 °C 34418.7 hPa North 20.9 km/h 31.1 km/h 87 % 0 mm
01:00 -17.8 °C -18.9 °C 34418.7 hPa NE 17.9 km/h 23.3 km/h 87 % 0 mm
01:06 -17.8 °C -18.9 °C 34418.7 hPa NNE 12.7 km/h 28.5 km/h 87 % 0 mm
01:12 -17.8 °C -18.9 °C 34418.7 hPa NNW 33.6 km/h 38.8 km/h 87 % 0 mm
01:18 -17.8 °C -19 °C 34418.7 hPa NNE 17.9 km/h 36.2 km/h 86 % 0 mm
01:24 -17.9 °C -19.1 °C 34418.7 hPa NNE 15.6 km/h 28.5 km/h 86 % 0 mm
01:30 -17.9 °C -18.9 °C 34405.1 hPa North 10.3 km/h 33.6 km/h 87 % 0 mm
01:36 -17.9 °C -18.9 °C 34418.7 hPa NNE 15.6 km/h 25.9 km/h 87 % 0 mm
01:42 -18 °C -19.1 °C 34405.1 hPa North 17.9 km/h 31.1 km/h 87 % 0 mm
01:48 -18 °C -18.9 °C 34405.1 hPa NNE 17.9 km/h 38.8 km/h 88 % 0 mm
01:54 -18.1 °C -19 °C 34405.1 hPa NNE 20.9 km/h 38.8 km/h 88 % 0 mm
02:00 -18.1 °C -19.1 °C 34405.1 hPa NNE 15.6 km/h 44.1 km/h 88 % 0 mm
02:06 -18.1 °C -19.1 °C 34405.1 hPa NE 23 km/h 28.5 km/h 88 % 0 mm
02:12 -18.2 °C -19.1 °C 34405.1 hPa NE 41.7 km/h 41.7 km/h 88 % 0 mm
02:18 -18.2 °C -19.1 °C 34405.1 hPa NNE 20.9 km/h 31.1 km/h 88 % 0 mm
02:24 -18.2 °C -19.2 °C 34405.1 hPa NNE 20.9 km/h 41.4 km/h 88 % 0 mm
02:30 -18.2 °C -19.2 °C 34405.1 hPa NNW 20.9 km/h 36.2 km/h 88 % 0 mm
02:36 -18.2 °C -19.2 °C 34405.1 hPa NE 15.6 km/h 28.5 km/h 88 % 0 mm
02:42 -18.3 °C -19.2 °C 34405.1 hPa NNW 7.6 km/h 31.1 km/h 88 % 0 mm
02:48 -18.3 °C -19.2 °C 34395 hPa NW 10.3 km/h 23.3 km/h 88 % 0 mm
02:54 -18.3 °C -19.2 °C 34395 hPa NNE 20.9 km/h 33.6 km/h 88 % 0 mm
03:00 -18.3 °C -19.2 °C 34395 hPa North 36.5 km/h 36.5 km/h 88 % 0 mm
03:06 -18.3 °C -19.3 °C 34395 hPa NE 23 km/h 25.9 km/h 87 % 0 mm
03:12 -18.3 °C -19.3 °C 34395 hPa NNE 17.9 km/h 38.8 km/h 87 % 0 mm
03:20 -18.3 °C -19.3 °C 34395 hPa North 12.7 km/h 31.1 km/h 87 % 0 mm
03:26 -18.3 °C -19.3 °C 34395 hPa NNW 12.7 km/h 33.6 km/h 87 % 0 mm
03:32 -18.3 °C -19.4 °C 34395 hPa NE 26.2 km/h 31.1 km/h 87 % 0 mm
03:38 -18.3 °C -19.4 °C 34384.8 hPa NW 7.6 km/h 25.9 km/h 87 % 0 mm
03:44 -18.3 °C -19.4 °C 34384.8 hPa NNW 23 km/h 31.1 km/h 87 % 0 mm
03:50 -18.4 °C -19.4 °C 34384.8 hPa NNW 12.7 km/h 31.1 km/h 87 % 0 mm
03:56 -18.4 °C -19.4 °C 34384.8 hPa NNE 26.2 km/h 31.1 km/h 87 % 0 mm
04:02 -18.4 °C -19.5 °C 34384.8 hPa NNW 7.6 km/h 28.5 km/h 87 % 0 mm
04:08 -18.4 °C -19.5 °C 34384.8 hPa NNW 10.3 km/h 23.3 km/h 87 % 0 mm
04:14 -18.5 °C -19.6 °C 34371.3 hPa NNW 10.3 km/h 23.3 km/h 87 % 0 mm
04:20 -18.5 °C -19.4 °C 34371.3 hPa NNE 12.7 km/h 23.3 km/h 88 % 0 mm
04:26 -18.6 °C -19.6 °C 34371.3 hPa NNE 7.6 km/h 28.5 km/h 87 % 0 mm
04:32 -18.6 °C -19.5 °C 34371.3 hPa NNW 10.3 km/h 20.8 km/h 88 % 0 mm
04:38 -18.6 °C -19.5 °C 34371.3 hPa North 20.9 km/h 28.5 km/h 88 % 0 mm
04:44 -18.6 °C -19.6 °C 34371.3 hPa NNW 15.6 km/h 18.2 km/h 88 % 0 mm
04:50 -18.7 °C -19.6 °C 34371.3 hPa North 17.9 km/h 25.9 km/h 88 % 0 mm
04:56 -18.7 °C -19.6 °C 34371.3 hPa NNE 17.9 km/h 31.1 km/h 88 % 0 mm
05:03 -18.7 °C -19.7 °C 34371.3 hPa North 10.3 km/h 28.5 km/h 88 % 0 mm
05:09 -18.7 °C -19.6 °C 34371.3 hPa North 17.9 km/h 25.9 km/h 89 % 0 mm
05:15 -18.7 °C -19.6 °C 34371.3 hPa NW 12.7 km/h 36.2 km/h 89 % 0 mm
05:21 -18.7 °C -19.7 °C 34371.3 hPa NNE 20.9 km/h 36.2 km/h 88 % 0 mm
05:27 -18.7 °C -19.7 °C 34371.3 hPa North 20.9 km/h 28.5 km/h 88 % 0 mm
05:33 -18.7 °C -19.7 °C 34371.3 hPa NW 17.9 km/h 31.1 km/h 88 % 0 mm
05:39 -18.7 °C -19.7 °C 34371.3 hPa North 23 km/h 28.5 km/h 88 % 0 mm
05:45 -18.7 °C -19.7 °C 34371.3 hPa North 10.3 km/h 33.6 km/h 88 % 0 mm
05:57 -18.8 °C -19.7 °C 34371.3 hPa North 23 km/h 23.3 km/h 88 % 0 mm
06:03 -18.8 °C -19.7 °C 34371.3 hPa NNE 7.6 km/h 20.8 km/h 89 % 0 mm
06:09 -18.8 °C -19.7 °C 34371.3 hPa North 15.6 km/h 20.8 km/h 89 % 0 mm
06:15 -18.8 °C -19.7 °C 34371.3 hPa NNW 17.9 km/h 23.3 km/h 89 % 0 mm
06:21 -18.8 °C -19.7 °C 34371.3 hPa North 15.6 km/h 28.5 km/h 89 % 0 mm
06:27 -18.9 °C -19.8 °C 34371.3 hPa North 17.9 km/h 41.4 km/h 89 % 0 mm
06:33 -18.9 °C -19.8 °C 34371.3 hPa NE 12.7 km/h 31.1 km/h 89 % 0 mm
06:39 -18.9 °C -19.8 °C 34371.3 hPa NNE 12.7 km/h 33.6 km/h 89 % 0 mm
06:45 -18.9 °C -19.8 °C 34371.3 hPa NE 12.7 km/h 20.8 km/h 89 % 0 mm
06:51 -18.9 °C -19.8 °C 34371.3 hPa NNE 41.7 km/h 41.7 km/h 89 % 0 mm
06:57 -18.9 °C -19.8 °C 34371.3 hPa NE 23 km/h 31.1 km/h 89 % 0 mm
07:03 -19 °C -19.9 °C 34371.3 hPa North 7.6 km/h 20.8 km/h 89 % 0 mm
07:09 -19 °C -19.9 °C 34371.3 hPa North 5.1 km/h 33.6 km/h 89 % 0 mm
07:15 -19 °C -19.9 °C 34361.1 hPa NNW 33.6 km/h 33.6 km/h 89 % 0 mm
07:21 -19 °C -19.9 °C 34361.1 hPa NNE 7.6 km/h 28.5 km/h 89 % 0 mm
07:27 -19 °C -19.9 °C 34361.1 hPa North 7.6 km/h 31.1 km/h 89 % 0 mm
07:33 -19 °C -19.9 °C 34361.1 hPa NNE 10.3 km/h 23.3 km/h 88 % 0 mm
07:39 -19.1 °C -20 °C 34361.1 hPa North 17.9 km/h 18.2 km/h 88 % 0 mm
07:45 -19.1 °C -20 °C 34361.1 hPa NNW 23 km/h 36.2 km/h 88 % 0 mm
07:51 -19 °C -19.9 °C 34361.1 hPa NNW 20.9 km/h 36.2 km/h 88 % 0 mm
Meteo18
Compliments of Weather Underground - 4 mb

Script developed by  Jim McMurry - jmcmurry@mwt.net Adapted for the template by  Wim van der Kuil - Leuven-Template.eu

You find our weather info also at:

European Weather Network

Weather Underground

Equipment we use:

Weather-station
Davis Vue

Weather-program
Meteobridge

Weather-server
Raspberry PI 2 B+

Provider
1 and 1

Davis Vue

Meteobridge

Raspberry PI 2 B+

1 and 1